Home > Weather > Pirassununga > Past weeks

Flag for Brazil Weather for the Past 2 Weeks in Pirassununga, São Paulo, Brazil

Now
86 °F

Partly sunny.


Feels Like: 89 °F
Forecast: 70 / 87 °F
Wind: 5 mph from Southwest

Location: Pirassununga Airport

Current Time: Feb 12, 2016 at 5:12:10 PM

Latest Report: Feb 12, 2016 at 4:00 PM


Visibility: N/A

Pressure: 29.92 "Hg (27.86 "Hg at 632m altitude)

Humidity: 55%

Dew point: 68 °F

Location of PirassunungaLocation

Historic Weather in Pirassununga — Graph

°F

Pirassununga Temperature Yesterday

Maximum temperature yesterday: 90 °F (at 2:00 PM)
Minimum temperature yesterday: 72 °F (at 6:00 AM)
Average temperature yesterday: 77 °F

High & Low Weather Summary for the Past Weeks

 TemperatureHumidityPressure
High97 °F (Feb 2, 4:00 PM)100% (Jan 29, 6:00 AM)30.15 "Hg (Jan 29, 6:00 AM)
Low64 °F (Feb 1, 6:00 AM)25% (Feb 2, 4:00 PM)29.89 "Hg (Feb 3, 5:00 PM)
Average81 °F67%30.03 "Hg
* Reported Jan 28 3:00 PM — Feb 12 3:00 PM, Pirassununga, Weather by CustomWeather, © 2016

Note: Actual official high and low records may vary slightly from our data, if they occured in-between our weather recording intervals... More about our weather records

Advertising

Pirassununga Weather History for the Previous 24 Hours

 ConditionsComfort  
Time TempWeatherWind HumidityBarometerVisibility
3:00 PM
Fri, Feb 12
86 °FPartly sunny.5 mph55%29.92 "HgN/A
2:00 PM86 °FPartly sunny.5 mph55%29.95 "HgN/A
1:00 PM84 °FPartly sunny.3 mph62%29.98 "HgN/A
12:00 PM82 °FPartly sunny.2 mph62%30.01 "HgN/A
11:00 AM79 °FPartly sunny.7 mph74%30.01 "HgN/A
10:00 AM77 °FPartly sunny.6 mph79%30.01 "HgN/A
9:00 AM73 °FLow clouds.7 mph94%30.01 "HgN/A
7:00 AM72 °FMostly cloudy.5 mph100%29.98 "HgN/A
6:00 AM72 °FPassing clouds.5 mph100%29.95 "HgN/A
11:00 PM
Thu, Feb 11
72 °FPassing clouds.3 mph100%30.01 "HgN/A
10:00 PM72 °FPassing clouds.1 mph100%30.01 "HgN/A
9:00 PM72 °FPassing clouds.6 mph100%29.98 "HgN/A
8:00 PM72 °FThunderstorms. Partly cloudy.3 mph94%29.98 "HgN/A
7:00 PM77 °FThunderstorms. Scattered clouds.5 mph79%29.95 "HgN/A
6:00 PM79 °FPartly sunny.10 mph74%29.92 "HgN/A
5:00 PM79 °FBroken clouds.12 mph74%29.92 "HgN/A
Weather by CustomWeather, © 2016

See weather overviewHow to use our weather pages